FENGYUN 1C DEB, 36255

Orbit data source: Space-Track

FENGYUN 1C DEB, 36255 is space debris in SSO originally from a launch on Mon, 10 May 1999 UTC launched from the Taiyaun Space Center, China (TSC). Fengyun 1C debris stems from the Chinese weather satellite Fengyun-1C, which was intentionally destroyed by a Chinese anti-satellite missile in 2007. This event dramatically increased the amount of space debris, with thousands of trackable fragments posing hazards to satellites and human spaceflight. The Fengyun 1C debris cloud has become a focal point in discussions about space sustainability and the need for international regulations to prevent the creation of new debris.

Loading next visibility...
Identifier
36255, 1999-025DWG
Orbit
SSO
Country
Flag of CNCN / PRC
Related business
Manufacturer
Unknown
Mission
Spacecraft
Bus & Motor
Unknown
Mass
Unknown
Launch date (UTC)
1999-05-10 (27 years ago)
Launch vehicle
Unknown
Launch site
Taiyaun Space Center, China (TSC)
Object type
Payload
Rocket body
Debris
Shape & HBR
Unknown shape, 0.1 m
Radar Cross Section
Small (<0.1 m²)

Expand to show TLE details & history
Last TLE update: 21 hours ago

TLE from 21 hours ago
0 FENGYUN 1C DEB
1 36255U 99025DWG 25353.56113056  .00001401  00000-0  48244-3 0  9992
2 36255  99.4355 274.8590 0064178 143.5444  35.1872 14.36594643641084
Epoch: 2025-12-19T13:28Z
TLE epoch observation values (Epoch: 2025-12-19T13:28:01.680Z)
Latitude
0.71782°
Longitude
164.57014°
Altitude
735.194 km
Speed
7.507 km/s
True Right ascension
06h 19m 54s
True Declination
0° 42' 49"
Sunlit
Object was in full shadow at epoch
Visualization orbit readout
Latitude
Unknown
Longitude
Unknown
Altitude
Unknown
Speed
Unknown
Apparent Right ascension
Unknown
Apparent Declination
Unknown
Sunlit
N/A
Visualization observer readout
Local Sidereal Time
09:09:25
Azimuth
Unknown
Elevation
Unknown
Doppler factor
Unknown
Orbital elements
Apogee altitude
812.8 km
Perigee altitude
721.089 km
Semi-major axis
7,145.082 km
Eccentricity
0.00642
Inclination
99.4355°
RAAN
274.859°
Arg. of periapsis
143.5444°
True anomaly
35.61378°
Mean anomaly
35.1872°
Eccentric anomaly
35.40021°
Mean motion
3.59362 °/min
Orbital period
100.18 mins
BSTAR
0.00048244
Loading maneuver chart data...
Computing Atmospheric mass density...

Documentation

Showing up to 5 results
|